Wind_Speed
1 1 1 1 2 1 1 1 1 0 1 1 1 1 2 2 2 1 1 1 1 1 1 1 2 2 2 2 2 3 3 3 3 4 4 3 3 4 4 4 4 5 5
1 1 1 2 2 1 1 1 1 1 1 1 1 1 2 2 1 2 2 2 2 2 2 2 2 2 2 3 3 3 4 4 4 5 5 4 4 5 5 5 6 6 6
2 1 2 2 2 2 2 1 1 1 1 1 1 2 2 2 2 2 2 2 2 2 3 3 3 3 4 4 4 5 5 5 5 5 5 5 6 6 6 6 7 7 8
2 2 2 2 3 3 3 2 2 1 1 2 2 2 2 3 3 3 3 3 3 3 4 4 4 5 5 5 5 6 6 6 6 6 6 6 7 7 8 8 8 9 9
2 3 3 3 3 3 4 3 3 3 3 2 2 3 3 3 3 4 4 4 4 4 4 5 6 6 6 6 6 6 7 7 7 7 7 8 8 9 9 10 10 11 11
2 3 4 4 4 4 4 4 4 4 4 4 4 4 4 4 4 4 5 5 5 5 5 6 7 7 7 7 7 7 8 8 8 9 9 10 10 10 10 11 11 12 13
2 3 3 4 4 4 4 4 5 5 5 5 5 5 5 6 5 5 5 6 6 7 7 8 8 9 9 9 9 9 9 10 10 10 11 11 12 12 12 12 12 13 14
2 3 4 4 4 4 5 5 5 6 6 6 6 7 7 7 6 7 7 7 8 9 9 10 10 11 11 11 11 11 11 12 12 12 12 13 13 14 14 14 14 15 15
3 3 4 4 5 5 5 5 6 6 7 7 8 8 8 8 8 9 9 9 9 10 11 12 12 12 13 13 13 13 14 13 14 14 15 15 15 16 16 16 16 16 17
4 4 4 5 5 5 6 6 6 7 7 8 9 9 9 10 10 10 11 11 11 12 12 13 13 14 14 14 14 15 15 16 16 17 17 17 18 18 18 18 18 19 19
3 4 4 4 5 6 6 6 6 7 8 9 9 9 10 10 11 12 12 12 13 14 14 15 15 15 15 16 16 17 17 18 18 18 19 20 20 21 21 21 21 21 21
4 5 4 5 5 6 6 7 7 8 9 9 10 11 11 12 12 13 13 14 15 15 15 16 17 17 17 17 18 18 19 20 20 21 21 21 22 23 24 24 24 24 24
5 5 5 6 6 7 7 8 8 9 10 11 11 12 13 14 14 14 15 16 16 17 17 18 18 19 19 19 20 20 20 21 21 22 22 23 23 23 25 26 27 27 27
6 6 7 7 8 8 8 9 10 11 12 12 13 13 14 14 15 16 17 17 18 18 19 19 19 19 20 21 21 22 22 22 23 24 24 25 26 26 26 27 29 29 29
8 7 7 7 8 8 9 10 11 12 13 13 14 14 15 15 16 16 17 17 18 18 19 20 20 21 21 22 23 23 24 24 25 25 25 26 27 28 29 29 30 31 31
8 8 8 8 8 9 10 11 12 12 13 14 14 15 16 17 17 18 19 19 19 20 20 21 22 22 23 23 23 24 25 26 27 27 28 29 30 30 31 31 32 33 33
10 9 9 9 10 11 11 12 13 13 14 15 15 16 18 18 19 20 20 20 21 21 21 22 24 25 25 25 26 26 27 28 28 29 30 30 31 31 32 32 33 33 34
11 11 10 10 11 12 13 13 14 15 15 16 17 17 18 19 20 21 22 22 23 23 23 24 26 27 27 28 28 29 30 30 30 32 32 33 33 33 33 33 34 34 35
12 12 12 12 12 13 14 14 15 15 16 17 17 19 20 20 21 23 23 24 24 25 26 27 27 28 28 29 30 31 31 32 32 33 33 34 35 35 35 35 36 36 38
13 13 13 13 14 14 15 16 16 17 17 18 19 20 20 21 22 23 24 25 26 27 28 28 28 29 29 30 31 31 32 33 33 33 34 35 35 35 36 36 37 37 38
14 14 14 15 15 15 15 15 16 17 18 18 19 20 21 22 23 23 24 26 27 28 28 29 28 28 29 29 30 30 31 31 32 33 34 35 35 35 35 36 37 38 39
15 15 15 15 15 15 15 16 17 18 19 20 21 21 22 23 23 24 24 24 25 25 26 26 26 27 28 29 29 30 31 32 32 33 34 35 35 36 37 37 38 38 39
16 16 16 16 16 16 16 17 18 19 20 21 21 22 23 23 23 24 24 24 25 25 25 25 27 28 29 29 30 31 32 33 34 34 35 36 37 37 37 38 39 40 40
17 17 17 17 17 17 18 18 18 20 21 22 23 23 24 24 24 25 24 25 26 26 26 27 28 29 30 31 31 32 33 33 34 35 35 36 37 38 38 39 39 40 40
18 18 18 18 18 19 19 19 20 20 21 22 23 24 24 25 25 26 26 26 27 27 28 28 29 30 30 31 31 32 33 34 35 35 36 37 37 37 37 37 38 38 39
20 20 20 19 20 20 20 20 21 22 23 24 25 25 26 26 26 26 26 27 27 28 28 29 30 30 30 31 32 33 34 34 35 36 36 36 36 36 36 36 36 36 36
Wind_Direction
132 154 147 136 130 133 152 160 167 174 35 18 5 4 359 349 355 2 358 354 344 343 339 326 324 325 331 314 294 290 292 290 277 268 263 264 267 264 262 261 260 263 269
179 177 179 183 177 188 205 223 204 210 257 312 328 343 343 334 330 339 325 318 321 323 321 315 312 311 315 309 296 287 283 284 275 269 266 263 269 268 267 266 267 268 269
183 188 191 206 216 232 240 250 202 211 229 246 288 316 326 318 307 314 308 303 300 292 298 301 300 298 297 298 296 288 282 279 275 276 272 267 268 268 267 270 273 271 270
206 202 199 219 231 242 241 233 222 210 224 244 266 289 310 311 304 304 305 300 291 284 288 293 292 296 297 297 295 286 284 280 278 279 274 271 273 275 272 271 273 274 274
216 219 219 229 239 245 243 237 233 235 238 249 269 279 289 298 294 292 293 291 285 284 285 291 291 296 296 297 297 291 284 279 277 278 276 276 276 279 277 274 274 273 273
238 226 226 240 245 247 252 249 244 249 248 254 265 278 285 286 281 283 285 284 281 282 284 287 292 292 290 289 292 291 287 281 279 276 275 277 278 279 279 277 277 276 275
265 243 242 247 247 252 254 251 248 252 253 259 265 273 278 279 279 277 279 280 280 282 284 286 288 292 291 286 285 286 285 284 281 278 277 276 276 277 278 280 280 279 277
302 259 251 249 249 250 247 247 251 255 258 263 265 268 271 276 278 277 280 279 279 282 284 287 288 287 288 288 284 283 283 283 283 280 278 277 276 277 277 279 281 280 277
322 290 263 258 255 251 246 248 255 261 263 265 267 268 269 273 277 279 279 280 283 284 284 284 286 285 286 285 284 284 283 282 282 281 279 278 278 279 277 277 278 278 278
307 296 274 266 263 258 256 258 260 263 264 266 268 270 272 274 276 280 282 283 283 284 283 282 284 285 286 283 283 282 284 283 280 280 280 278 278 278 277 275 276 275 276
318 296 281 267 265 262 263 262 265 268 267 269 273 274 278 280 279 279 281 284 284 284 283 283 283 285 284 282 282 281 283 284 282 279 279 280 279 278 277 275 274 275 275
318 299 286 278 269 264 264 266 272 274 274 275 276 278 280 280 281 283 284 285 287 286 285 285 285 285 285 284 284 283 283 282 281 280 279 280 281 278 276 275 274 275 275
316 303 287 283 277 273 270 272 273 276 276 275 277 279 278 277 277 279 281 283 285 284 284 286 286 286 283 283 283 284 285 283 282 281 281 281 282 281 279 277 274 274 275
319 301 296 285 281 280 279 277 278 278 276 275 276 280 281 281 277 278 281 283 283 282 282 283 284 286 285 285 284 282 284 284 283 282 281 281 281 282 282 280 277 275 274
322 310 302 293 290 287 285 285 287 285 280 276 276 280 282 284 285 285 284 284 283 283 282 283 284 286 286 286 285 284 284 284 284 283 283 283 283 283 282 281 279 277 275
329 315 303 295 290 287 285 286 288 286 286 282 280 281 283 285 285 286 287 286 285 284 283 282 283 284 285 286 286 285 284 284 284 284 283 281 282 283 282 281 279 278 276
329 319 310 301 296 293 290 287 291 292 289 287 285 285 284 285 287 286 286 287 286 286 285 283 285 286 285 285 285 284 285 284 284 284 285 285 285 284 283 282 280 279 279
326 321 312 305 302 298 295 292 292 291 288 287 286 285 285 286 289 289 288 288 287 286 285 285 286 286 286 285 285 284 284 285 285 285 285 285 284 284 283 282 281 280 279
322 317 313 308 304 301 298 295 292 291 290 289 288 288 288 289 291 289 289 289 287 286 286 286 287 288 287 286 286 286 286 286 286 285 285 286 285 284 283 282 281 280 280
318 314 311 310 306 303 301 299 295 293 291 290 290 292 292 291 292 292 291 290 289 289 288 288 288 288 288 287 288 288 287 288 288 288 288 288 287 286 285 285 283 282 281
316 314 311 309 307 305 304 303 302 300 295 295 295 295 294 294 294 294 292 292 292 290 291 291 292 292 291 291 291 292 291 291 292 291 290 289 289 289 289 288 288 286 284
319 316 317 314 313 310 307 306 305 304 303 300 299 299 299 299 299 295 293 294 296 295 296 296 295 294 294 294 293 293 294 293 292 292 292 292 290 289 289 288 289 288 287
320 317 316 317 317 316 313 312 308 305 305 303 302 301 302 304 303 301 299 299 299 298 297 297 296 296 295 295 296 296 295 294 294 294 293 292 291 290 290 290 289 289 288
318 317 314 314 314 314 314 313 310 308 305 303 303 304 304 304 303 303 302 301 300 299 299 299 299 298 297 297 298 298 298 297 296 295 294 293 292 291 291 290 291 290 289
316 316 313 312 312 312 311 311 310 309 309 308 308 307 305 304 302 301 300 301 300 299 299 300 300 300 301 301 301 300 299 299 298 297 296 295 294 293 293 292 293 292 290
312 313 312 311 310 309 310 310 309 310 310 310 309 307 305 304 303 302 302 302 302 302 302 302 302 303 303 303 303 302 301 300 300 299 298 298 297 296 296 296 296 296 295
Height
5896 5896 5897 5898 5898 5899 5899 5899 5900 5900 5900 5900 5901 5901 5901 5901 5901 5901 5901 5901 5901 5901 5901 5901 5901 5900 5900 5900 5900 5900 5900 5899 5900 5900 5900 5900 5900 5900 5901 5901 5901 5901 5901
5896 5896 5897 5897 5898 5898 5899 5899 5899 5900 5900 5900 5900 5900 5900 5901 5901 5901 5901 5900 5900 5900 5900 5900 5900 5900 5900 5900 5900 5899 5899 5899 5899 5899 5899 5899 5899 5899 5900 5900 5900 5900 5900
5896 5896 5896 5897 5897 5898 5898 5899 5899 5899 5900 5900 5900 5900 5900 5900 5900 5900 5900 5900 5900 5900 5900 5900 5900 5900 5899 5899 5899 5899 5898 5898 5898 5898 5898 5898 5898 5898 5898 5898 5898 5898 5899
5895 5896 5896 5897 5897 5897 5898 5898 5899 5899 5899 5900 5900 5900 5900 5900 5899 5900 5900 5900 5900 5899 5899 5899 5899 5899 5899 5898 5898 5898 5897 5897 5897 5897 5897 5897 5897 5897 5897 5897 5897 5897 5897
5895 5895 5896 5896 5897 5897 5897 5898 5898 5898 5899 5899 5899 5899 5899 5899 5899 5899 5899 5899 5899 5899 5899 5898 5898 5898 5898 5897 5897 5896 5896 5896 5896 5896 5896 5895 5895 5895 5895 5895 5895 5895 5895
5895 5895 5895 5896 5896 5896 5897 5897 5897 5897 5898 5898 5898 5898 5898 5898 5898 5898 5898 5898 5898 5898 5897 5897 5897 5897 5897 5896 5896 5895 5895 5894 5894 5894 5894 5894 5893 5893 5893 5893 5892 5892 5892
5894 5894 5894 5895 5895 5896 5896 5896 5896 5897 5897 5897 5897 5897 5897 5897 5897 5897 5897 5897 5897 5896 5896 5896 5896 5895 5895 5894 5894 5893 5893 5892 5892 5892 5891 5891 5891 5891 5890 5890 5890 5890 5889
5893 5893 5894 5894 5894 5895 5895 5895 5895 5895 5895 5896 5896 5896 5896 5897 5896 5896 5896 5895 5895 5895 5894 5894 5894 5893 5893 5892 5892 5891 5891 5890 5890 5889 5889 5889 5888 5888 5888 5887 5887 5886 5886
5893 5893 5893 5893 5893 5893 5894 5894 5894 5894 5894 5894 5894 5895 5895 5895 5894 5894 5894 5893 5893 5893 5892 5892 5891 5891 5890 5890 5889 5889 5888 5888 5887 5887 5886 5885 5885 5885 5884 5884 5883 5883 5882
5892 5892 5892 5892 5892 5892 5892 5892 5892 5892 5892 5892 5892 5892 5893 5892 5892 5892 5892 5891 5891 5890 5889 5889 5888 5888 5887 5886 5886 5885 5885 5884 5883 5883 5882 5882 5881 5880 5880 5880 5879 5879 5878
5891 5891 5891 5891 5891 5891 5891 5891 5891 5891 5891 5891 5890 5890 5890 5890 5890 5889 5889 5889 5888 5887 5886 5885 5885 5884 5883 5883 5882 5882 5881 5880 5879 5878 5878 5877 5876 5876 5875 5874 5874 5873 5873
5891 5890 5889 5889 5889 5889 5889 5889 5889 5889 5889 5889 5888 5888 5888 5888 5887 5887 5886 5886 5885 5884 5883 5882 5881 5880 5879 5879 5878 5877 5876 5875 5875 5874 5873 5872 5871 5870 5869 5869 5868 5868 5867
5890 5889 5888 5888 5888 5887 5887 5887 5887 5887 5886 5886 5886 5886 5885 5884 5884 5884 5883 5882 5881 5881 5880 5878 5877 5876 5875 5874 5873 5873 5872 5871 5870 5869 5868 5867 5865 5864 5863 5862 5862 5861 5860
5888 5887 5887 5886 5886 5886 5885 5885 5885 5884 5884 5884 5883 5882 5882 5881 5880 5880 5879 5878 5878 5877 5876 5874 5873 5872 5871 5870 5868 5867 5866 5866 5864 5863 5862 5861 5859 5858 5857 5856 5854 5853 5853
5887 5886 5885 5885 5884 5884 5884 5883 5882 5882 5881 5880 5880 5879 5878 5877 5877 5876 5875 5874 5874 5872 5871 5870 5868 5867 5866 5864 5863 5862 5861 5860 5858 5857 5855 5854 5852 5851 5850 5848 5847 5846 5845
5886 5885 5884 5883 5882 5882 5881 5881 5880 5879 5878 5877 5876 5876 5875 5874 5873 5872 5871 5869 5868 5868 5866 5865 5863 5862 5860 5859 5857 5856 5854 5853 5852 5850 5848 5847 5845 5843 5841 5839 5838 5837 5836
5885 5883 5882 5881 5880 5879 5879 5878 5877 5876 5875 5874 5873 5872 5871 5870 5869 5867 5866 5865 5863 5862 5861 5860 5858 5856 5854 5853 5851 5849 5848 5846 5844 5843 5841 5839 5837 5835 5833 5831 5830 5828 5827
5883 5882 5880 5879 5878 5877 5876 5875 5874 5873 5872 5871 5869 5868 5867 5866 5864 5863 5861 5859 5858 5856 5855 5854 5852 5850 5848 5846 5844 5843 5841 5838 5837 5835 5833 5831 5829 5827 5825 5823 5821 5819 5818
5882 5880 5879 5877 5876 5875 5873 5872 5871 5870 5868 5867 5865 5864 5862 5861 5859 5857 5856 5854 5852 5850 5849 5847 5845 5843 5841 5839 5837 5835 5833 5831 5828 5826 5824 5822 5820 5818 5816 5813 5811 5809 5808
5880 5878 5876 5875 5873 5872 5870 5869 5867 5866 5864 5863 5861 5859 5858 5856 5854 5852 5850 5848 5846 5844 5841 5840 5838 5836 5833 5831 5829 5827 5825 5822 5820 5818 5815 5813 5811 5808 5806 5804 5802 5799 5797
5877 5875 5874 5872 5870 5868 5867 5865 5863 5862 5860 5858 5856 5855 5853 5850 5848 5846 5844 5841 5839 5837 5834 5832 5830 5828 5826 5823 5821 5819 5816 5814 5811 5809 5806 5804 5801 5799 5796 5794 5791 5789 5786
5875 5873 5871 5869 5867 5865 5863 5861 5860 5858 5856 5854 5852 5850 5847 5845 5842 5840 5837 5835 5832 5830 5828 5825 5823 5821 5818 5816 5814 5811 5808 5806 5803 5801 5797 5795 5792 5789 5786 5784 5781 5778 5775
5872 5871 5868 5866 5864 5861 5859 5857 5855 5853 5851 5849 5847 5844 5842 5839 5837 5834 5831 5828 5826 5823 5821 5819 5816 5814 5811 5809 5806 5803 5800 5797 5794 5791 5788 5785 5782 5779 5776 5773 5770 5767 5764
5869 5867 5865 5863 5860 5858 5856 5853 5851 5849 5846 5844 5841 5838 5836 5834 5831 5828 5825 5823 5820 5817 5815 5812 5809 5806 5804 5801 5798 5795 5791 5788 5785 5782 5778 5775 5772 5769 5765 5762 5759 5756 5753
5866 5863 5861 5859 5856 5854 5852 5849 5847 5844 5841 5838 5836 5833 5831 5828 5825 5822 5819 5817 5814 5811 5808 5805 5802 5799 5796 5793 5789 5786 5783 5779 5776 5772 5768 5765 5761 5758 5755 5751 5748 5745 5742
5861 5859 5856 5854 5852 5849 5847 5845 5842 5839 5837 5834 5831 5827 5824 5821 5818 5815 5813 5810 5807 5804 5801 5798 5794 5791 5788 5785 5781 5777 5774 5770 5766 5762 5758 5755 5751 5748 5744 5741 5738 5734 5731